This is the latest recevied weather packets stored in our database for station/object SP8NFE-1. If no packets are shown the sender has not sent any weather packets the latest 10 day(s).
| Time | Temp. | Humidity | Pressure | Rain* | Wind** | Luminosity | Snow |
|---|---|---|---|---|---|---|---|
| 1777877415 | 17.78° C | 45% | 0 hPa | 0 mm | - | - | - |
| 1777877115 | 17.78° C | 42% | 0 hPa | 0 mm | - | - | - |
| 1777876815 | 17.22° C | 46% | 0 hPa | 0 mm | - | - | - |
| 1777876515 | 17.22° C | 47% | 0 hPa | 0 mm | - | - | - |
| 1777876215 | 16.67° C | 51% | 0 hPa | 0 mm | - | - | - |
| 1777875915 | 16.11° C | 54% | 0 hPa | 0 mm | - | - | - |
| 1777875615 | 15.56° C | 54% | 0 hPa | 0 mm | - | - | - |
| 1777875315 | 15° C | 60% | 0 hPa | 0 mm | - | - | - |
| 1777875015 | 13.89° C | 68% | 0 hPa | 0 mm | - | - | - |
| 1777874716 | 13.33° C | 82% | 0 hPa | 0 mm | - | - | - |
| 1777874415 | 12.78° C | 92% | 0 hPa | 0 mm | - | - | - |
| 1777874115 | 12.22° C | 96% | 0 hPa | 0 mm | - | - | - |
| 1777873815 | 11.67° C | 98% | 0 hPa | 0 mm | - | - | - |
| 1777873515 | 10.56° C | 100% | 0 hPa | 0 mm | - | - | - |
| 1777873215 | 10° C | 100% | 0 hPa | 0 mm | - | - | - |
| 1777872916 | 9.44° C | 100% | 0 hPa | 0 mm | - | - | - |
| 1777872616 | 8.89° C | 100% | 0 hPa | 0 mm | - | - | - |
| 1777872316 | 8.33° C | 100% | 0 hPa | 0 mm | - | - | - |
| 1777872016 | 7.78° C | 100% | 0 hPa | 0 mm | - | - | - |
| 1777871716 | 7.22° C | 100% | 0 hPa | 0 mm | - | - | - |
| 1777871416 | 6.67° C | 100% | 0 hPa | 0 mm | - | - | - |
| 1777871116 | 6.11° C | 100% | 0 hPa | 0 mm | - | - | - |
| 1777870816 | 5.56° C | 100% | 0 hPa | 0 mm | - | - | - |
| 1777870516 | 5.56° C | 100% | 0 hPa | 0 mm | - | - | - |
| 1777870216 | 4.44° C | 100% | 0 hPa | 0 mm | - | - | - |
* Rain latest hour (hover to see other rain measurements)
** Current wind speed in m/s (hover to see current wind gust speed)